Regional Weather Roundup
Issued by NWS

Home | Current Version | Previous Version | Text Only | Print | Product List | Glossary On
Versions: 1 2 3 4 5 6 7 8 9 10 11 12 13 14 15 16 17 18 19 20 21 22 23 24 25 26 27 28 29 30 31 32 33 34 35 36 37 38 39 40 41 42 43 44 45 46 47 48 49 50
000
ASUS43 KOAX 181110
RWRNE

WEATHER ROUNDUP FOR NEBRASKA
NATIONAL WEATHER SERVICE OMAHA NE
500 AM CST WED JAN 18 2017

NOTES: SATELLITE DATA IS BEING USED TO AUGMENT CLOUD COVER ABOVE
       12000 FEET.
       "FAIR" INDICATES FEW OR NO CLOUDS BELOW 12,000 FEET WITH NO
       SIGNIFICANT WEATHER AND/OR OBSTRUCTIONS TO VISIBILITY.

  * THESE STATIONS DO NOT REPORT WEATHER SUCH AS RAIN...SNOW OR FOG.

NEZ001>004-019>022-054>056-181200-
NEBRASKA PANHANDLE

CITY           SKY/WX    TMP DP  RH WIND       PRES   REMARKS
SCOTTSBLUFF    CLOUDY    19  13  77 NW7       29.95F WCI  10
ALLIANCE       CLOUDY    17  12  80 W6        29.92F WCI   9
CHADRON        CLOUDY    23  14  68 SW8       29.92F WCI  14
KIMBALL        CLOUDY    27  21  77 NW12      29.93F WCI  17
SIDNEY         CLOUDY    20  16  84 W8        29.94S WCI  10
$$

NEZ057>060-069>072-079>082-181200-
SOUTHWEST NEBRASKA

CITY           SKY/WX    TMP DP  RH WIND       PRES   REMARKS
NORTH PLATTE   CLOUDY    23  20  88 W6        29.96F WCI  16
IMPERIAL       CLOUDY    25  21  85 S5        29.95F WCI  19
LEXINGTON      CLOUDY    32  28  86 SW5       29.98F WCI  27
MCCOOK         CLOUDY    25  25 100 SW6       29.98F WCI  18
OGALLALA       CLOUDY    18  16  92 W5        29.96F WCI  11
$$

NEZ005>010-023>029-035>040-094-181200-
NORTH CENTRAL NEBRASKA

CITY           SKY/WX    TMP DP  RH WIND       PRES   REMARKS
VALENTINE      CLOUDY    21  17  84 W7        29.90F WCI  12
AINSWORTH      CLOUDY    27  25  91 SW8       29.89F WCI  19
BROKEN BOW     CLOUDY    27  26  96 CALM      29.94F
O`NEILL        CLOUDY    33  30  90 W7        29.90F WCI  27
ORD            CLOUDY    30  25  81 SW9       29.95F WCI  22
THEDFORD       PTCLDY    28  24  84 SW3       29.91F
$$

NEZ041-046>049-061>064-073>077-083>087-181200-
SOUTH CENTRAL NEBRASKA

CITY           SKY/WX    TMP DP  RH WIND       PRES   REMARKS
GRAND ISLAND   CLOUDY    33  29  85 SW12      30.01S WCI  24
AURORA         CLEAR     32  29  90 SW8       30.01S WCI  25
HASTINGS       CLEAR     34  28  79 SW8       30.02F WCI  27
HEBRON         CLOUDY    28  26  92 CALM      30.05F
HOLDREGE       CLOUDY    32  28  86 SW5       29.99F WCI  27
KEARNEY *      CLOUDY    32  27  80 SW7       29.99F WCI  26
YORK           CLOUDY    32  28  86 SW12      30.03S WCI  23
$$

NEZ011>018-030>034-042>045-181200-
NORTHEAST NEBRASKA

CITY           SKY/WX    TMP DP  RH WIND       PRES   REMARKS
NORFOLK        CLOUDY    33  26  75 SW6       29.95F WCI  28
ALBION         CLOUDY    29  25  85 S5        29.97F WCI  24
BLAIR          CLOUDY    29  28  94 S5        30.03F WCI  24
FREMONT        CLOUDY    32  30  92 S3        30.03F
TEKAMAH        CLOUDY    29  26  89 SE10      30.02F WCI  20
WAYNE          CLOUDY    30  27  90 S10       29.95F WCI  21
$$

NEZ050>053-065>068-078-088>093-181200-
SOUTHEAST NEBRASKA

CITY           SKY/WX    TMP DP  RH WIND       PRES   REMARKS
LINCOLN        CLOUDY    28  26  92 S5        30.06F WCI  23
OMAHA EPPLEY   CLOUDY    25  21  85 SE9       30.06F WCI  15
BEATRICE       CLOUDY    28  27  94 CALM      30.07F
FALLS CITY     CLOUDY    26  24  92 SE5       30.09F WCI  20
NEBRASKA CITY  CLOUDY    26  26 100 S8        30.07F WCI  17
PLATTSMOUTH    CLOUDY    28  25  86 S5        30.06S WCI  23
$$

NEZ044-045-051>053-067-181200-
OMAHA AREA

CITY           SKY/WX    TMP DP  RH WIND       PRES   REMARKS
OMAHA EPPLEY   CLOUDY    25  21  85 SE9       30.06F WCI  15
BLAIR          CLOUDY    29  28  94 S5        30.03F WCI  24
FREMONT        CLOUDY    32  30  92 S3        30.03F
MILLARD        CLEAR     26  25  94 CALM      30.06S FOG
OFFUTT AFB     CLEAR     22  22 100 E3        30.05F
PLATTSMOUTH    CLOUDY    28  25  86 S5        30.06S WCI  23
WAHOO          FAIR      30  28  92 SW6       30.03F WCI  24
$$




USA.gov is the U.S. government's official web portal to all federal, state and local government web resources and services.